Regional Weather Roundup
Issued by NWS

Home | Current Version | Previous Version | Graphics & Text | Print | Product List | Glossary On
Versions: 1 2 3 4 5 6 7 8 9 10 11 12 13 14 15 16 17 18 19 20 21 22 23 24 25 26 27 28 29 30 31 32 33 34 35 36 37 38 39 40 41 42 43 44 45 46 47 48 49 50
000
ASUS43 KBIS 211810
RWRND

NORTH DAKOTA REGIONAL WEATHER ROUNDUP
NATIONAL WEATHER SERVICE BISMARCK ND
100 PM CDT FRI JUL 21 2017

NOTE: "FAIR" INDICATES FEW OR NO CLOUDS BELOW 12,000 FEET WITH NO
SIGNIFICANT WEATHER AND/OR OBSTRUCTIONS TO VISIBILITY.


NDZ001>003-009>011-017-211900-
NORTHWEST NORTH DAKOTA

CITY           SKY/WX    TMP DP  RH WIND       PRES   REMARKS
WILLISTON      MOSUNNY   85  60  42 N7        29.84R
6HR MIN TEMP:  66; 6HR MAX TEMP:  87; 6HR PCP: TRACE;

MINOT          CLOUDY    71  64  78 N12G17    29.80R
MINOT AFB      CLOUDY    72  64  75 E10       29.77F
$$

NDZ018>021-031>035-040>046-211900-
SOUTHWEST NORTH DAKOTA

CITY           SKY/WX    TMP DP  RH WIND       PRES   REMARKS
BISMARCK       MOSUNNY   84  68  58 S7        29.82F
6HR MIN TEMP:  66; 6HR MAX TEMP:  85;

DICKINSON      SUNNY     85  64  49 CALM      29.85R
GARRISON         N/A     77  65  66 VRB3      29.84R
6HR MIN TEMP:  60; 6HR MAX TEMP:  84;

HETTINGER ARPT MOSUNNY   84  62  47 CALM      29.87S
$$

NDZ004>008-012>016-024-026-027-054-211900-
NORTHEAST NORTH DAKOTA

CITY           SKY/WX    TMP DP  RH WIND       PRES   REMARKS
GRAND FORKS    CLOUDY    83  73  72 VRB3      29.77F THUNDER
GRND FRKS AFB  PTSUNNY   86  69  56 S3        29.79S HX  90
DEVILS LAKE    MOSUNNY   84  66  54 SW13      29.79F
$$

NDZ022-023-025-028>030-036>039-047>053-211900-
SOUTHEAST NORTH DAKOTA

CITY           SKY/WX    TMP DP  RH WIND       PRES   REMARKS
FARGO          MOSUNNY   90  69  50 W6        29.77S HX  94
6HR MIN TEMP:  73; 6HR MAX TEMP:  90;

JAMESTOWN      SUNNY     88  60  38 E7        29.81S
$$




USA.gov is the U.S. government's official web portal to all federal, state and local government web resources and services.